Wind_Speed
5 6 6 7 9 9 9 9 10 11 12 12 13 12 13 12 12 13 12 12 12 12 12 12 12 11 11 10 10 8 7 6 6 5 5 4 3 3 2 2 4 5 5 6
5 5 7 8 9 10 9 9 10 11 11 12 13 13 12 13 13 13 12 12 13 13 12 12 12 12 12 12 11 9 8 7 6 6 5 4 3 3 2 2 3 4 5 5
4 4 6 7 8 9 9 10 9 10 10 11 12 13 12 13 13 13 12 13 13 13 13 13 13 13 12 11 11 9 8 7 7 6 6 5 4 3 2 2 3 4 4 5
4 4 6 6 8 9 9 10 10 9 9 10 11 11 11 12 11 11 12 13 13 14 14 14 14 13 12 12 12 10 9 8 8 7 6 5 4 3 2 1 2 3 4 4
4 4 5 6 8 8 9 9 10 9 9 9 10 11 11 11 12 11 12 13 13 13 14 13 14 14 14 13 12 11 10 9 8 8 6 5 4 3 2 2 2 2 3 4
4 5 4 5 7 7 8 8 9 9 9 8 9 11 10 10 12 12 12 12 13 13 14 13 14 15 14 13 12 11 10 10 9 8 7 5 5 4 3 2 1 1 2 3
5 5 5 6 6 7 7 7 8 8 8 8 9 10 10 10 11 12 11 12 12 13 14 14 14 15 15 14 13 12 11 11 10 9 8 6 5 5 4 3 2 2 1 1
5 5 5 5 7 7 7 7 7 8 8 7 8 9 9 11 11 11 11 11 12 13 14 14 13 14 15 14 14 13 12 11 10 9 8 7 6 5 4 4 4 3 2 2
5 5 4 5 6 7 7 7 7 8 8 7 8 8 9 10 10 10 11 11 11 13 14 14 13 14 15 15 15 14 13 11 11 10 9 8 6 5 5 5 5 4 4 3
5 6 6 5 6 7 7 7 8 8 8 8 8 8 8 10 10 11 11 11 11 13 14 14 14 14 14 15 15 15 14 12 11 11 10 9 7 6 6 5 5 5 5 4
7 7 7 7 7 7 8 9 9 8 8 9 9 9 10 10 10 11 11 11 12 12 13 14 14 14 15 15 15 15 14 13 11 11 11 10 9 8 7 6 5 5 6 5
7 8 9 8 9 10 10 9 10 10 10 10 9 10 11 11 11 10 10 11 12 13 14 14 15 15 15 15 15 16 15 13 12 12 12 11 10 9 8 8 7 7 7 7
9 9 10 10 10 10 11 10 11 11 11 11 10 9 10 10 11 11 11 11 12 12 14 15 15 15 15 15 15 16 15 14 13 13 12 12 11 10 10 9 9 9 9 8
11 11 10 10 9 10 10 11 12 12 12 12 10 9 9 10 11 12 12 11 11 12 13 14 15 14 15 15 15 15 16 15 14 14 13 12 12 11 11 10 10 10 10 10
10 10 10 10 10 10 11 11 12 14 14 13 12 10 10 10 11 12 12 12 11 12 13 14 15 15 14 15 15 15 16 15 15 14 14 13 12 11 12 11 11 11 11 11
12 12 11 11 12 12 12 12 13 14 14 13 13 12 11 11 11 12 11 12 12 12 13 14 14 14 15 15 15 15 16 16 16 15 14 13 13 12 12 12 12 12 12 12
12 13 13 12 12 12 11 11 12 13 13 13 12 11 12 12 12 12 11 12 13 13 14 15 16 16 15 15 15 15 16 16 16 16 15 15 14 14 14 13 14 14 14 14
12 12 13 13 13 12 10 12 11 12 11 12 12 11 12 12 12 13 12 12 13 14 15 16 17 17 17 17 16 16 16 16 17 17 17 16 16 16 15 15 15 15 15 15
13 13 13 13 13 12 12 11 12 12 11 11 12 12 12 12 12 12 12 12 13 13 14 15 17 17 17 17 17 17 17 17 16 16 17 17 17 17 17 17 17 17 17 17
15 15 15 14 14 14 13 13 13 13 12 11 11 12 12 12 12 12 12 12 12 13 13 14 16 17 18 17 17 17 17 17 17 17 18 18 18 18 18 18 17 17 17 17
17 16 16 16 16 14 14 15 14 14 12 12 11 12 12 12 12 13 13 13 12 12 13 14 15 16 18 18 18 18 18 18 18 18 19 19 19 19 18 18 18 18 18 18
17 17 17 17 16 15 15 15 15 14 14 13 13 13 13 13 13 14 13 14 14 14 14 14 15 16 17 18 18 19 18 18 19 19 19 19 19 19 19 19 20 20 20 20
19 18 18 18 17 16 17 17 16 16 15 14 13 13 14 14 14 14 14 14 15 15 15 15 15 16 17 17 18 19 19 19 18 19 19 19 20 20 20 21 21 22 21 21
20 20 20 19 18 17 17 17 16 16 16 15 15 15 15 16 15 16 16 15 15 15 16 16 16 16 17 17 17 18 19 19 19 19 20 20 21 21 21 21 21 21 22 22
22 22 21 20 19 19 19 18 18 17 17 17 16 16 16 16 17 17 17 17 16 16 17 17 17 18 18 18 19 19 20 20 20 21 21 21 22 22 22 22 22 23 23 24
23 23 22 21 20 20 20 20 19 18 18 18 18 18 17 17 17 17 18 18 17 18 18 19 19 19 19 20 20 21 21 21 21 22 22 23 24 24 24 24 25 25 26 27
Wind_Direction
231 225 217 213 212 213 209 210 206 204 204 203 206 208 209 211 212 207 208 214 217 212 206 200 200 200 200 201 201 202 212 217 218 224 232 240 254 266 282 324 341 347 353 359
219 209 210 212 211 211 206 204 202 204 205 206 208 211 213 211 210 206 207 210 213 205 200 196 196 199 201 201 200 206 210 216 221 223 226 227 243 256 282 330 344 350 355 358
209 200 209 206 196 199 202 204 206 214 215 218 216 217 217 208 210 211 210 208 207 203 201 198 197 198 197 198 201 205 209 216 222 229 233 228 239 255 282 317 341 352 356 360
211 213 209 202 203 201 205 208 209 207 212 213 216 216 210 204 207 212 212 210 207 206 206 202 196 196 198 198 199 205 211 214 220 227 231 229 240 253 260 296 339 354 358 3
200 197 204 205 201 202 201 207 208 211 216 212 213 215 205 205 207 210 212 211 209 209 207 204 201 197 197 197 200 207 212 214 219 222 222 226 233 246 256 288 324 348 358 9
207 197 199 199 191 194 197 202 209 214 217 212 209 213 205 208 205 207 207 208 211 212 208 207 203 196 196 199 204 210 214 216 217 221 228 234 239 242 242 257 290 337 357 2
217 212 212 207 201 200 202 202 208 207 207 212 211 211 204 202 203 204 204 204 210 214 209 206 204 201 201 204 209 213 216 216 217 221 225 229 240 239 235 239 256 271 305 332
230 221 220 214 209 207 208 215 208 206 208 210 211 205 199 202 204 207 206 204 208 209 204 204 207 208 208 209 213 215 217 218 218 220 221 226 232 234 236 237 248 250 260 280
225 216 215 217 210 207 210 205 207 212 213 212 212 202 200 207 207 212 214 211 209 207 206 207 209 211 212 212 213 216 218 221 220 220 220 221 224 228 234 240 243 245 251 262
223 220 220 219 218 217 214 208 209 217 216 218 216 212 204 204 206 210 213 212 209 208 207 209 211 214 213 213 213 217 217 219 219 220 220 220 222 230 239 245 243 247 252 260
232 230 226 224 221 220 218 218 220 225 225 225 224 222 213 210 210 210 214 213 210 209 210 211 214 215 214 213 214 215 215 219 221 220 219 222 226 231 234 242 249 253 259 264
238 234 229 226 223 223 223 224 227 233 235 232 232 222 220 216 211 210 212 213 213 213 212 212 214 215 215 215 217 216 216 220 222 223 223 229 232 236 236 243 247 254 261 265
243 236 231 229 229 229 230 227 231 234 237 236 231 227 224 217 211 212 212 215 218 219 217 214 214 217 218 218 219 217 217 221 223 225 228 232 236 237 239 245 248 254 260 266
245 241 237 238 236 232 233 233 236 238 240 239 237 235 234 228 220 220 219 219 220 223 220 215 214 215 219 220 219 218 219 222 224 227 232 236 235 237 242 247 248 252 257 260
242 241 239 236 235 234 234 232 235 239 242 244 242 240 237 235 227 224 223 222 223 223 219 215 215 214 218 219 218 218 220 222 225 229 233 233 234 243 244 247 250 253 256 258
245 242 243 244 240 238 236 235 237 238 241 245 245 242 239 237 232 230 226 225 223 223 218 214 215 216 218 219 219 221 222 225 228 232 231 234 240 245 248 248 252 256 257 257
243 242 243 246 242 243 239 238 238 238 239 242 244 242 243 242 240 235 233 229 226 225 222 218 218 220 219 222 224 226 226 228 232 235 234 240 243 246 250 252 254 255 257 257
241 240 241 238 239 243 239 238 237 237 240 239 238 238 240 242 238 235 236 235 229 226 225 222 222 221 223 225 227 228 229 232 236 239 239 243 245 247 250 255 255 258 258 256
240 240 240 242 242 239 237 239 239 238 241 241 237 237 239 239 234 234 233 233 229 224 224 222 223 223 225 229 231 231 231 236 241 242 242 246 248 249 253 256 255 257 257 255
240 239 240 242 244 242 239 240 239 239 243 244 241 235 232 233 235 233 230 228 228 227 229 226 227 228 229 231 234 234 236 239 243 243 246 248 250 251 253 254 254 257 258 255
240 240 242 243 243 243 242 239 239 239 242 245 242 235 231 228 232 231 230 231 230 230 229 229 230 231 232 234 235 235 238 240 243 243 246 249 252 252 252 253 255 256 258 258
240 241 242 243 242 242 239 237 239 242 241 242 242 240 238 233 235 234 232 235 236 236 234 234 233 234 235 235 237 238 240 244 245 246 247 249 250 249 251 254 256 258 260 260
240 242 245 245 243 242 240 239 241 244 241 243 243 244 243 241 241 242 242 242 241 242 239 237 237 235 237 238 241 242 244 246 249 250 249 251 251 251 254 257 260 262 263 263
243 244 245 244 241 241 241 242 245 245 244 245 245 244 244 244 243 246 247 246 244 241 241 242 242 241 242 244 246 247 248 249 251 252 253 254 254 256 257 258 260 261 263 264
243 244 244 244 242 242 243 245 248 246 243 244 244 245 248 245 243 244 246 247 248 246 242 243 242 242 244 247 249 250 251 252 254 255 255 255 256 257 259 260 262 265 266 268
243 244 243 245 246 246 247 249 250 249 246 245 244 246 248 248 246 244 246 248 251 251 248 246 247 249 249 250 251 251 252 256 256 256 257 257 257 258 260 262 264 267 269 271
Height
5823 5825 5825 5826 5827 5828 5829 5831 5833 5835 5837 5839 5841 5843 5845 5847 5849 5852 5854 5857 5859 5861 5863 5865 5867 5869 5871 5873 5875 5877 5878 5879 5879 5880 5880 5881 5881 5880 5879 5879 5878 5877 5876 5874
5823 5823 5824 5824 5825 5827 5828 5830 5832 5834 5835 5837 5839 5841 5843 5845 5847 5850 5852 5854 5856 5858 5861 5863 5865 5867 5869 5871 5873 5875 5877 5878 5878 5879 5879 5879 5879 5879 5878 5878 5877 5876 5875 5874
5822 5823 5822 5823 5824 5826 5827 5829 5830 5832 5833 5834 5837 5839 5841 5843 5845 5847 5850 5852 5854 5856 5859 5861 5863 5865 5867 5869 5871 5873 5875 5876 5877 5877 5877 5878 5878 5878 5877 5877 5876 5875 5875 5874
5820 5821 5821 5822 5823 5824 5825 5827 5828 5830 5831 5833 5835 5837 5840 5841 5843 5846 5848 5850 5852 5854 5857 5859 5861 5864 5866 5868 5870 5872 5873 5874 5875 5876 5876 5876 5877 5877 5876 5876 5875 5875 5874 5873
5820 5820 5820 5821 5822 5823 5824 5825 5827 5828 5829 5831 5833 5835 5839 5840 5842 5844 5846 5847 5849 5852 5855 5857 5859 5862 5864 5866 5868 5870 5872 5873 5874 5874 5875 5875 5875 5875 5875 5875 5875 5874 5874 5873
5819 5819 5820 5820 5821 5822 5823 5824 5825 5826 5828 5830 5832 5833 5836 5838 5840 5841 5843 5846 5847 5850 5852 5854 5857 5859 5862 5864 5867 5868 5870 5871 5872 5873 5873 5873 5874 5874 5874 5874 5874 5874 5873 5872
5818 5819 5819 5819 5820 5821 5822 5824 5825 5825 5826 5828 5829 5830 5834 5836 5837 5839 5841 5843 5845 5847 5850 5852 5855 5857 5860 5862 5864 5866 5868 5869 5870 5871 5871 5872 5872 5873 5873 5873 5873 5873 5872 5872
5817 5818 5818 5818 5819 5819 5820 5822 5824 5824 5825 5826 5827 5828 5832 5833 5835 5836 5839 5841 5843 5845 5848 5850 5853 5855 5858 5860 5862 5864 5865 5867 5868 5869 5870 5870 5871 5871 5871 5871 5872 5872 5871 5871
5816 5816 5817 5817 5817 5819 5819 5820 5822 5823 5823 5824 5825 5828 5830 5831 5833 5834 5837 5839 5841 5843 5846 5848 5850 5853 5855 5857 5860 5861 5863 5865 5866 5867 5868 5869 5869 5870 5870 5870 5870 5870 5870 5870
5814 5815 5815 5816 5816 5817 5818 5819 5820 5821 5821 5822 5824 5826 5828 5829 5831 5833 5834 5837 5839 5841 5843 5845 5848 5850 5852 5854 5857 5859 5861 5862 5864 5865 5866 5867 5868 5868 5869 5869 5869 5869 5869 5868
5812 5813 5814 5814 5815 5816 5817 5817 5818 5819 5820 5821 5822 5826 5826 5827 5829 5830 5832 5834 5836 5838 5840 5843 5845 5847 5849 5851 5854 5856 5858 5860 5861 5863 5864 5865 5866 5867 5867 5867 5867 5867 5867 5867
5810 5811 5812 5813 5813 5813 5814 5815 5816 5817 5818 5819 5820 5825 5824 5825 5826 5828 5830 5831 5833 5835 5837 5839 5842 5844 5846 5849 5851 5853 5855 5857 5859 5860 5861 5863 5863 5864 5865 5865 5865 5865 5865 5865
5808 5809 5809 5810 5813 5812 5811 5812 5813 5814 5815 5816 5817 5822 5821 5822 5823 5825 5827 5829 5830 5832 5834 5836 5838 5841 5843 5846 5848 5850 5852 5854 5856 5857 5859 5860 5861 5862 5862 5863 5863 5863 5863 5862
5805 5806 5807 5808 5808 5809 5809 5810 5810 5811 5812 5814 5815 5817 5819 5820 5821 5822 5824 5826 5827 5829 5831 5833 5835 5838 5840 5843 5845 5847 5849 5851 5853 5854 5856 5857 5858 5859 5859 5860 5860 5860 5860 5860
5802 5803 5804 5805 5805 5806 5807 5807 5808 5808 5810 5811 5813 5814 5816 5817 5818 5820 5821 5823 5824 5826 5828 5830 5832 5835 5837 5839 5842 5844 5846 5848 5850 5851 5852 5854 5855 5855 5856 5856 5857 5857 5857 5857
5799 5800 5801 5802 5802 5803 5804 5804 5805 5806 5807 5808 5809 5811 5813 5814 5815 5816 5818 5820 5822 5823 5825 5827 5830 5832 5834 5837 5839 5841 5843 5845 5846 5848 5849 5850 5851 5852 5853 5853 5853 5854 5854 5854
5795 5797 5798 5799 5799 5800 5801 5802 5802 5803 5804 5805 5806 5809 5809 5811 5812 5813 5815 5817 5818 5821 5822 5824 5826 5829 5831 5834 5835 5837 5839 5841 5843 5844 5846 5847 5848 5848 5849 5849 5849 5850 5850 5850
5792 5793 5794 5795 5797 5797 5801 5799 5799 5800 5801 5802 5803 5805 5806 5807 5809 5810 5812 5813 5815 5817 5819 5821 5823 5826 5828 5830 5832 5834 5835 5837 5838 5840 5841 5842 5843 5844 5845 5845 5846 5846 5846 5846
5789 5790 5791 5792 5793 5794 5796 5796 5796 5797 5798 5799 5800 5802 5803 5804 5805 5807 5808 5810 5812 5814 5816 5818 5820 5822 5824 5826 5828 5830 5831 5833 5834 5836 5837 5838 5839 5840 5840 5841 5841 5841 5842 5842
5785 5786 5787 5788 5789 5791 5793 5793 5793 5795 5795 5796 5797 5798 5800 5801 5803 5805 5806 5807 5809 5811 5812 5814 5816 5818 5820 5822 5824 5825 5827 5829 5830 5831 5833 5834 5834 5835 5835 5836 5836 5837 5837 5837
5781 5782 5783 5784 5785 5787 5789 5789 5790 5793 5794 5794 5794 5795 5797 5798 5801 5802 5803 5804 5806 5808 5809 5811 5813 5814 5816 5818 5820 5821 5823 5825 5826 5827 5828 5829 5829 5830 5830 5831 5831 5832 5832 5833
5776 5778 5779 5780 5781 5785 5785 5785 5787 5788 5789 5790 5791 5792 5794 5795 5797 5798 5800 5801 5803 5804 5806 5807 5808 5810 5812 5813 5815 5817 5819 5820 5821 5822 5823 5823 5824 5824 5825 5826 5826 5827 5827 5827
5771 5774 5774 5776 5779 5779 5780 5781 5783 5784 5785 5786 5788 5789 5791 5792 5793 5795 5796 5797 5799 5800 5801 5803 5804 5806 5807 5809 5811 5812 5813 5815 5816 5817 5817 5818 5818 5819 5819 5820 5820 5821 5821 5822
5766 5768 5769 5771 5773 5774 5775 5777 5778 5779 5781 5782 5784 5785 5787 5788 5790 5791 5792 5793 5795 5796 5797 5799 5800 5801 5803 5804 5806 5807 5808 5809 5810 5811 5812 5812 5813 5813 5814 5814 5814 5815 5815 5815
5761 5762 5764 5765 5768 5769 5771 5772 5774 5775 5777 5778 5779 5781 5783 5784 5785 5787 5788 5789 5790 5792 5793 5794 5795 5797 5798 5799 5800 5801 5802 5803 5804 5805 5806 5806 5807 5807 5808 5808 5808 5808 5808 5808
5755 5757 5758 5760 5762 5764 5765 5767 5768 5770 5771 5773 5775 5776 5778 5779 5780 5782 5783 5784 5785 5787 5788 5789 5790 5791 5792 5793 5794 5795 5796 5797 5798 5798 5799 5800 5800 5801 5801 5801 5801 5801 5801 5800